Weather Roundup
Issued by NWS Chicago, IL

Home | Current Version | Previous Version | Text Only | Print | Product List | Glossary Off
Versions: 1 2 3 4 5 6 7 8 9 10 11 12 13 14 15 16 17 18 19 20 21 22 23 24 25 26 27 28 29 30 31 32 33 34 35 36 37 38 39 40 41 42 43 44 45 46 47 48 49 50

000
NZUS59 KLOT 171100
HRRLOT

CHICAGO AREA WEATHER ROUNDUP
NATIONAL WEATHER SERVICE CHICAGO/ROMEOVILLE IL
600 AM CDT THU APR 17 2014

NOTE: "FAIR" INDICATES FEW OR NO CLOUDS BELOW 12,000 FEET WITH NO
SIGNIFICANT WEATHER AND/OR OBSTRUCTIONS TO VISIBILITY.

* THESE STATIONS ARE NOT UNDER NWS QUALITY CONTROL. THEY ALSO MAY NOT
  REPORT WEATHER SUCH AS PRECIPITATION OR FOG.

ILZ005-006-012>014-019>023-171200-
NORTHEAST ILLINOIS

CITY           SKY/WX    TMP DP  RH WIND       PRES   REMARKS
OHARE          MOCLDY    42  25  50 S14       30.11S
MIDWAY         MOCLDY    43  26  51 S14       30.13F
AURORA         PTCLDY    41  28  60 S17       30.10S
WAUKEGAN       CLOUDY    42  29  59 SE9       30.10S
DUPAGE AIRPORT CLOUDY    40  27  59 S12       30.10R
WHEELING       CLOUDY    44  26  49 S15       30.12F
NORTHERLY IS     N/A     42  27  55 S13         N/A
$$

WIZ051-052-058>065-066-070>072-171200-
SOUTHEAST WISCONSIN

CITY           SKY/WX    TMP DP  RH WIND       PRES   REMARKS
MILWAUKEE      CLOUDY    40  29  64 SE16G25   30.09F
KENOSHA*       CLOUDY    40  31  70 SE12      30.09S
RACINE*        CLOUDY    39  30  70 S17G26    30.11F
WAUKESHA       CLOUDY    37  28  70 SE12      30.07F
$$

INZ001>003-010>013-019-020-171200-
NORTHWEST INDIANA

CITY           SKY/WX    TMP DP  RH WIND       PRES   REMARKS
GARY*          MOCLDY    43  25  49 SE14      30.16S
MICHIGAN CITY* NOT AVBL
RENSSELAER*    NOT AVBL
VALPARAISO     PTCLDY    37  24  59 SE8       30.19S
$$

LMZ740>746-171200-
SOUTHERN LAKE MICHIGAN

STATION/POSITION TIME  SKY/WX   TEMP WIND        PRES    VSBY
                                AIR  DIR/SP/G
                 (UTC)          (F)  (DEG/KT/KT) (MB)    (MI)
HARRISON CRIB    1000            42  170/ 25/ 29   N/A
BURNHAM HARBOR   1100            42  160/ 14/ 16   N/A
CALUMET HARBOR   1000            42  160/ 12/ 16 1021.3F
BURNS HARBOR     NOT AVBL
MICHIGAN CITY    1000            41  120/ 13/ 17   N/A
$$

ABBREVIATIONS USED IN REMARKS
   TC - TEMPERATURE IN CELSIUS
  WCI - WIND CHILL INDEX
   HX - HEAT INDEX
  VSB - VISIBILITY
$$


USA.gov is the U.S. government's official web portal to all federal, state and local government web resources and services.